START_TIME,STEP,MOV.,E45,t_acc.,ALAR?,t_acc.,A12,t_acc.,A24,t_acc.
1979-07-03 06:00:27.140 ,0,1,0.,4.8,122.,4.8,0.,4.8,0.,4.8
1979-07-03 06:00:31.940 ,0,1,1.,4.8,136.,4.8,0.,4.8,0.,4.8
1979-07-03 06:00:36.740 ,0,1,1.,4.8,148.,4.8,0.,4.8,0.,4.8
1979-07-03 06:00:41.540 ,0,1,2.,4.8,122.,4.8,0.,4.8,0.,4.8
1979-07-03 06:00:46.340 ,0,1,4.,4.8,124.,4.8,0.,4.8,0.,4.8
1979-07-03 06:00:51.140 ,4,1,0.,4.8,148.,4.8,0.,4.8,0.,4.8
1979-07-03 06:00:55.940 ,4,1,1.,4.8,136.,4.8,0.,4.8,0.,4.8
1979-07-03 06:01:00.740 ,4,1,3.,4.8,128.,4.8,0.,4.8,0.,4.8
1979-07-03 06:01:05.540 ,4,1,0.,4.8,120.,4.8,0.,4.8,0.,4.8
1979-07-03 06:01:10.340 ,4,1,1.,4.8,168.,4.8,0.,4.8,0.,4.8
1979-07-03 06:01:15.140 ,7,1,3.,4.8,148.,4.8,0.,4.8,0.,4.8
1979-07-03 06:01:19.940 ,7,1,3.,4.8,136.,4.8,0.,4.8,0.,4.8
1979-07-03 06:01:24.740 ,7,1,0.,4.8,128.,4.8,0.,4.8,0.,4.8
1979-07-03 06:01:29.540 ,7,1,0.,4.8,128.,4.8,0.,4.8,0.,4.8
1979-07-03 06:01:34.340 ,7,1,2.,4.8,144.,4.8,0.,4.8,0.,4.8
1979-07-03 06:01:39.140 ,3,1,2.,4.8,144.,4.8,0.,4.8,0.,4.8
1979-07-03 06:01:43.940 ,3,1,0.,4.8,148.,4.8,0.,4.8,0.,4.8
1979-07-03 06:01:48.740 ,3,1,0.,4.8,140.,4.8,0.,4.8,0.,4.8
1979-07-03 06:01:53.540 ,3,1,1.,4.8,140.,4.8,0.,4.8,0.,4.8
1979-07-03 06:01:58.340 ,3,1,2.,4.8,128.,4.8,0.,4.8,0.,4.8
1979-07-03 06:02:03.140 ,0,1,1.,4.8,122.,4.8,0.,4.8,0.,4.8
1979-07-03 06:02:07.940 ,0,1,2.,4.8,152.,4.8,0.,4.8,0.,4.8
1979-07-03 06:02:12.740 ,0,1,0.,4.8,152.,4.8,0.,4.8,0.,4.8
1979-07-03 06:02:17.540 ,0,1,1.,4.8,128.,4.8,0.,4.8,0.,4.8
1979-07-03 06:02:22.340 ,0,1,0.,4.8,132.,4.8,0.,4.8,0.,4.8
1979-07-03 06:02:27.140 ,4,1,1.,4.8,128.,4.8,0.,4.8,0.,4.8
1979-07-03 06:02:31.940 ,4,1,0.,4.8,144.,4.8,0.,4.8,0.,4.8
1979-07-03 06:02:36.740 ,4,1,0.,4.8,140.,4.8,0.,4.8,0.,4.8
1979-07-03 06:02:41.540 ,4,1,1.,4.8,136.,4.8,0.,4.8,0.,4.8
1979-07-03 06:02:46.340 ,4,1,2.,4.8,128.,4.8,0.,4.8,0.,4.8
1979-07-03 06:02:51.140 ,7,1,0.,4.8,132.,4.8,0.,4.8,0.,4.8
1979-07-03 06:02:55.940 ,7,1,1.,4.8,144.,4.8,0.,4.8,0.,4.8
1979-07-03 06:03:00.740 ,7,1,0.,4.8,148.,4.8,0.,4.8,0.,4.8
1979-07-03 06:03:05.540 ,7,1,0.,4.8,132.,4.8,0.,4.8,0.,4.8
1979-07-03 06:03:10.340 ,7,1,2.,4.8,128.,4.8,0.,4.8,0.,4.8
1979-07-03 06:03:15.140 ,3,1,0.,4.8,124.,4.8,0.,4.8,0.,4.8
1979-07-03 06:03:19.940 ,3,1,2.,4.8,140.,4.8,0.,4.8,0.,4.8
1979-07-03 06:03:24.740 ,3,1,2.,4.8,152.,4.8,0.,4.8,0.,4.8
1979-07-03 06:03:29.540 ,3,1,1.,4.8,148.,4.8,0.,4.8,0.,4.8
1979-07-03 06:03:34.340 ,3,1,1.,4.8,132.,4.8,0.,4.8,0.,4.8
1979-07-03 06:03:39.140 ,0,1,0.,4.8,148.,4.8,0.,4.8,0.,4.8
1979-07-03 06:03:43.940 ,0,1,0.,4.8,118.,4.8,0.,4.8,0.,4.8
1979-07-03 06:03:48.740 ,0,1,0.,4.8,132.,4.8,0.,4.8,0.,4.8
1979-07-03 06:03:53.540 ,0,1,0.,4.8,152.,4.8,0.,4.8,0.,4.8
1979-07-03 06:03:58.340 ,0,1,3.,4.8,110.,4.8,0.,4.8,0.,4.8
1979-07-03 06:04:03.140 ,4,1,1.,4.8,148.,4.8,0.,4.8,0.,4.8
1979-07-03 06:04:07.940 ,4,1,1.,4.8,144.,4.8,0.,4.8,0.,4.8
1979-07-03 06:04:12.740 ,4,1,4.,4.8,140.,4.8,0.,4.8,0.,4.8
1979-07-03 06:04:17.540 ,4,1,0.,4.8,144.,4.8,0.,4.8,0.,4.8
1979-07-03 06:04:22.340 ,4,1,1.,4.8,128.,4.8,0.,4.8,0.,4.8
1979-07-03 06:04:27.140 ,7,1,1.,4.8,140.,4.8,0.,4.8,0.,4.8
1979-07-03 06:04:31.940 ,7,1,2.,4.8,144.,4.8,0.,4.8,0.,4.8
1979-07-03 06:04:36.740 ,7,1,0.,4.8,136.,4.8,0.,4.8,0.,4.8
1979-07-03 06:04:41.540 ,7,1,4.,4.8,136.,4.8,0.,4.8,0.,4.8
1979-07-03 06:04:46.340 ,7,1,0.,4.8,152.,4.8,0.,4.8,0.,4.8
1979-07-03 06:04:51.140 ,3,1,2.,4.8,148.,4.8,0.,4.8,0.,4.8
1979-07-03 06:04:55.940 ,3,1,0.,4.8,156.,4.8,0.,4.8,0.,4.8
1979-07-03 06:05:00.740 ,3,1,0.,4.8,140.,4.8,0.,4.8,0.,4.8
1979-07-03 06:05:05.540 ,3,1,3.,4.8,132.,4.8,0.,4.8,0.,4.8
1979-07-03 06:05:10.340 ,3,1,1.,4.8,126.,4.8,0.,4.8,0.,4.8
1979-07-03 06:05:15.140 ,0,1,1.,4.8,148.,4.8,0.,4.8,0.,4.8
1979-07-03 06:05:19.940 ,0,1,0.,4.8,148.,4.8,0.,4.8,0.,4.8
1979-07-03 06:05:24.740 ,0,1,0.,4.8,168.,4.8,0.,4.8,0.,4.8
1979-07-03 06:05:29.540 ,0,1,1.,4.8,128.,4.8,0.,4.8,0.,4.8
1979-07-03 06:05:34.340 ,0,1,0.,4.8,116.,4.8,0.,4.8,0.,4.8
1979-07-03 06:05:39.140 ,0,0,0.,4.8,122.,4.8,0.,4.8,0.,4.8
1979-07-03 06:05:43.940 ,0,0,1.,4.8,156.,4.8,0.,4.8,0.,4.8
1979-07-03 06:05:48.740 ,0,0,2.,4.8,126.,4.8,0.,4.8,0.,4.8
1979-07-03 06:05:53.540 ,0,0,1.,4.8,144.,4.8,0.,4.8,0.,4.8
1979-07-03 06:05:58.340 ,0,0,2.,4.8,140.,4.8,0.,4.8,0.,4.8
1979-07-03 06:06:03.140 ,0,0,2.,4.8,132.,4.8,0.,4.8,0.,4.8
1979-07-03 06:06:07.940 ,0,0,1.,4.8,136.,4.8,0.,4.8,0.,4.8
1979-07-03 06:06:12.740 ,0,0,1.,4.8,148.,4.8,0.,4.8,0.,4.8
1979-07-03 06:06:17.540 ,0,0,2.,4.8,140.,4.8,0.,4.8,0.,4.8
1979-07-03 06:06:22.340 ,0,0,3.,4.8,152.,4.8,0.,4.8,0.,4.8
1979-07-03 06:06:27.140 ,5,0,0.,4.8,132.,4.8,0.,4.8,0.,4.8
1979-07-03 06:06:31.940 ,5,0,1.,4.8,152.,4.8,0.,4.8,0.,4.8
1979-07-03 06:06:36.740 ,5,0,0.,4.8,118.,4.8,0.,4.8,0.,4.8
1979-07-03 06:06:41.540 ,5,0,1.,4.8,160.,4.8,0.,4.8,0.,4.8
1979-07-03 06:06:46.340 ,5,0,0.,4.8,140.,4.8,0.,4.8,0.,4.8
1979-07-03 06:06:51.140 ,5,0,0.,4.8,128.,4.8,0.,4.8,0.,4.8
1979-07-03 06:06:55.940 ,5,0,0.,4.8,160.,4.8,0.,4.8,0.,4.8
1979-07-03 06:07:00.740 ,5,0,2.,4.8,120.,4.8,0.,4.8,0.,4.8
1979-07-03 06:07:05.540 ,5,0,0.,4.8,156.,4.8,0.,4.8,0.,4.8
1979-07-03 06:07:10.340 ,5,0,1.,4.8,140.,4.8,0.,4.8,0.,4.8
1979-07-03 06:07:15.140 ,4,0,0.,4.8,156.,4.8,0.,4.8,0.,4.8
1979-07-03 06:07:19.940 ,4,0,1.,4.8,148.,4.8,0.,4.8,0.,4.8
1979-07-03 06:07:24.740 ,4,0,2.,4.8,156.,4.8,0.,4.8,0.,4.8
1979-07-03 06:07:29.540 ,4,0,2.,4.8,132.,4.8,0.,4.8,0.,4.8
1979-07-03 06:07:34.340 ,4,0,4.,4.8,144.,4.8,0.,4.8,0.,4.8
1979-07-03 06:07:39.140 ,4,0,1.,4.8,120.,4.8,0.,4.8,0.,4.8
1979-07-03 06:07:43.940 ,4,0,0.,4.8,148.,4.8,0.,4.8,0.,4.8
1979-07-03 06:07:48.740 ,4,0,0.,4.8,132.,4.8,0.,4.8,0.,4.8
1979-07-03 06:07:53.540 ,4,0,1.,4.8,172.,4.8,0.,4.8,0.,4.8
1979-07-03 06:07:58.340 ,4,0,1.,4.8,132.,4.8,0.,4.8,0.,4.8
1979-07-03 06:08:03.140 ,3,0,0.,4.8,152.,4.8,0.,4.8,0.,4.8
1979-07-03 06:08:07.940 ,3,0,0.,4.8,156.,4.8,0.,4.8,0.,4.8
1979-07-03 06:08:12.740 ,3,0,1.,4.8,160.,4.8,0.,4.8,0.,4.8
1979-07-03 06:08:17.540 ,3,0,0.,4.8,144.,4.8,0.,4.8,0.,4.8
1979-07-03 06:08:22.340 ,3,0,0.,4.8,140.,4.8,0.,4.8,0.,4.8
1979-07-03 06:08:27.140 ,3,0,1.,4.8,132.,4.8,0.,4.8,0.,4.8
1979-07-03 06:08:31.940 ,3,0,0.,4.8,148.,4.8,0.,4.8,0.,4.8
1979-07-03 06:08:36.740 ,3,0,0.,4.8,144.,4.8,0.,4.8,0.,4.8
1979-07-03 06:08:41.540 ,3,0,0.,4.8,102.,4.8,0.,4.8,0.,4.8
1979-07-03 06:08:46.340 ,3,0,0.,4.8,128.,4.8,0.,4.8,0.,4.8
1979-07-03 06:08:51.140 ,2,0,0.,4.8,136.,4.8,0.,4.8,0.,4.8
1979-07-03 06:08:55.940 ,2,0,3.,4.8,144.,4.8,0.,4.8,0.,4.8
1979-07-03 06:09:00.740 ,2,0,2.,4.8,156.,4.8,0.,4.8,0.,4.8
1979-07-03 06:09:05.540 ,2,0,1.,4.8,132.,4.8,0.,4.8,0.,4.8
1979-07-03 06:09:10.340 ,2,0,1.,4.8,136.,4.8,0.,4.8,0.,4.8
1979-07-03 06:09:15.140 ,2,0,1.,4.8,128.,4.8,0.,4.8,0.,4.8
1979-07-03 06:09:19.940 ,2,0,1.,4.8,128.,4.8,0.,4.8,0.,4.8
1979-07-03 06:09:24.740 ,2,0,0.,4.8,140.,4.8,0.,4.8,0.,4.8
1979-07-03 06:09:29.540 ,2,0,2.,4.8,144.,4.8,0.,4.8,0.,4.8
1979-07-03 06:09:34.340 ,2,0,0.,4.8,140.,4.8,0.,4.8,0.,4.8
1979-07-03 06:09:39.140 ,1,0,3.,4.8,126.,4.8,0.,4.8,0.,4.8
1979-07-03 06:09:43.940 ,1,0,1.,4.8,172.,4.8,0.,4.8,0.,4.8
1979-07-03 06:09:48.740 ,1,0,1.,4.8,112.,4.8,0.,4.8,0.,4.8
1979-07-03 06:09:53.540 ,1,0,3.,4.8,132.,4.8,0.,4.8,0.,4.8
1979-07-03 06:09:58.340 ,1,0,0.,4.8,122.,4.8,0.,4.8,0.,4.8
1979-07-03 06:10:03.140 ,1,0,0.,4.8,128.,4.8,0.,4.8,0.,4.8
1979-07-03 06:10:07.940 ,1,0,2.,4.8,128.,4.8,0.,4.8,0.,4.8
1979-07-03 06:10:12.740 ,1,0,0.,4.8,140.,4.8,0.,4.8,0.,4.8
1979-07-03 06:10:17.540 ,1,0,1.,4.8,140.,4.8,0.,4.8,0.,4.8
1979-07-03 06:10:22.340 ,1,0,0.,4.8,148.,4.8,0.,4.8,0.,4.8
1979-07-03 06:10:27.140 ,0,0,0.,4.8,120.,4.8,0.,4.8,0.,4.8
1979-07-03 06:10:31.940 ,0,0,3.,4.8,140.,4.8,0.,4.8,0.,4.8
1979-07-03 06:10:36.740 ,0,0,2.,4.8,132.,4.8,0.,4.8,0.,4.8
1979-07-03 06:10:41.540 ,0,0,3.,4.8,140.,4.8,0.,4.8,0.,4.8
1979-07-03 06:10:46.340 ,0,0,1.,4.8,140.,4.8,0.,4.8,0.,4.8
1979-07-03 06:10:51.140 ,0,0,3.,4.8,148.,4.8,0.,4.8,0.,4.8
1979-07-03 06:10:55.940 ,0,0,1.,4.8,144.,4.8,0.,4.8,0.,4.8
1979-07-03 06:11:00.740 ,0,0,1.,4.8,132.,4.8,0.,4.8,0.,4.8
1979-07-03 06:11:05.540 ,0,0,1.,4.8,128.,4.8,0.,4.8,0.,4.8
1979-07-03 06:11:10.340 ,0,0,0.,4.8,156.,4.8,0.,4.8,0.,4.8
1979-07-03 06:11:15.140 ,0,0,1.,4.8,144.,4.8,0.,4.8,0.,4.8
1979-07-03 06:11:19.940 ,0,0,1.,4.8,116.,4.8,0.,4.8,0.,4.8
1979-07-03 06:11:24.740 ,0,0,2.,4.8,128.,4.8,0.,4.8,0.,4.8
1979-07-03 06:11:29.540 ,0,0,0.,4.8,112.,4.8,0.,4.8,0.,4.8
1979-07-03 06:11:34.340 ,0,0,0.,4.8,132.,4.8,0.,4.8,0.,4.8
1979-07-03 06:11:39.140 ,0,0,3.,4.8,128.,4.8,0.,4.8,0.,4.8
1979-07-03 06:11:43.940 ,0,0,0.,4.8,136.,4.8,0.,4.8,0.,4.8
1979-07-03 06:11:48.740 ,0,0,0.,4.8,132.,4.8,0.,4.8,0.,4.8
1979-07-03 06:11:53.540 ,0,0,0.,4.8,112.,4.8,0.,4.8,0.,4.8
1979-07-03 06:11:58.340 ,0,0,1.,4.8,128.,4.8,0.,4.8,0.,4.8
1979-07-03 06:12:03.140 ,1,0,0.,4.8,124.,4.8,0.,4.8,0.,4.8
1979-07-03 06:12:07.940 ,1,0,0.,4.8,132.,4.8,0.,4.8,0.,4.8
1979-07-03 06:12:12.740 ,1,0,1.,4.8,144.,4.8,0.,4.8,0.,4.8
1979-07-03 06:12:17.540 ,1,0,2.,4.8,144.,4.8,0.,4.8,0.,4.8
1979-07-03 06:12:22.340 ,1,0,0.,4.8,132.,4.8,0.,4.8,0.,4.8
1979-07-03 06:12:27.140 ,1,0,0.,4.8,152.,4.8,0.,4.8,0.,4.8
1979-07-03 06:12:31.940 ,1,0,0.,4.8,156.,4.8,0.,4.8,0.,4.8
1979-07-03 06:12:36.740 ,1,0,2.,4.8,126.,4.8,0.,4.8,0.,4.8
1979-07-03 06:12:41.540 ,1,0,1.,4.8,156.,4.8,0.,4.8,0.,4.8
1979-07-03 06:12:46.340 ,1,0,2.,4.8,132.,4.8,0.,4.8,0.,4.8
1979-07-03 06:12:51.140 ,2,0,1.,4.8,128.,4.8,0.,4.8,0.,4.8
1979-07-03 06:12:55.940 ,2,0,0.,4.8,128.,4.8,0.,4.8,0.,4.8
1979-07-03 06:13:00.740 ,2,0,1.,4.8,144.,4.8,0.,4.8,0.,4.8
1979-07-03 06:13:05.540 ,2,0,0.,4.8,140.,4.8,0.,4.8,0.,4.8
1979-07-03 06:13:10.340 ,2,0,1.,4.8,156.,4.8,0.,4.8,0.,4.8
1979-07-03 06:13:15.140 ,2,0,0.,4.8,132.,4.8,0.,4.8,0.,4.8
1979-07-03 06:13:19.940 ,2,0,2.,4.8,132.,4.8,0.,4.8,0.,4.8
1979-07-03 06:13:24.740 ,2,0,1.,4.8,140.,4.8,0.,4.8,0.,4.8
1979-07-03 06:13:29.540 ,2,0,1.,4.8,140.,4.8,0.,4.8,0.,4.8
1979-07-03 06:13:34.340 ,2,0,2.,4.8,132.,4.8,0.,4.8,0.,4.8
1979-07-03 06:13:39.140 ,3,0,1.,4.8,152.,4.8,0.,4.8,0.,4.8
1979-07-03 06:13:43.940 ,3,0,0.,4.8,152.,4.8,0.,4.8,0.,4.8
1979-07-03 06:13:48.740 ,3,0,0.,4.8,152.,4.8,0.,4.8,0.,4.8
1979-07-03 06:13:53.540 ,3,0,0.,4.8,132.,4.8,0.,4.8,0.,4.8
1979-07-03 06:13:58.340 ,3,0,1.,4.8,144.,4.8,0.,4.8,0.,4.8
1979-07-03 06:14:03.140 ,3,0,1.,4.8,164.,4.8,0.,4.8,0.,4.8
1979-07-03 06:14:07.940 ,3,0,1.,4.8,128.,4.8,0.,4.8,0.,4.8
1979-07-03 06:14:12.740 ,3,0,1.,4.8,140.,4.8,0.,4.8,0.,4.8
1979-07-03 06:14:17.540 ,3,0,2.,4.8,120.,4.8,0.,4.8,0.,4.8
1979-07-03 06:14:22.340 ,3,0,2.,4.8,140.,4.8,0.,4.8,1.,4.8
1979-07-03 06:14:27.140 ,4,0,0.,4.8,148.,4.8,0.,4.8,0.,4.8
1979-07-03 06:14:31.940 ,4,0,1.,4.8,144.,4.8,0.,4.8,0.,4.8
1979-07-03 06:14:36.740 ,4,0,0.,4.8,144.,4.8,0.,4.8,0.,4.8
1979-07-03 06:14:41.540 ,4,0,2.,4.8,132.,4.8,0.,4.8,0.,4.8
1979-07-03 06:14:46.340 ,4,0,1.,4.8,144.,4.8,0.,4.8,0.,4.8
1979-07-03 06:14:51.140 ,4,0,2.,4.8,152.,4.8,0.,4.8,0.,4.8
1979-07-03 06:14:55.940 ,4,0,0.,4.8,148.,4.8,0.,4.8,0.,4.8
1979-07-03 06:15:00.740 ,4,0,0.,4.8,124.,4.8,0.,4.8,0.,4.8
1979-07-03 06:15:05.540 ,4,0,0.,4.8,126.,4.8,0.,4.8,0.,4.8
1979-07-03 06:15:10.340 ,4,0,1.,4.8,144.,4.8,0.,4.8,0.,4.8
1979-07-03 06:15:15.140 ,5,0,3.,4.8,136.,4.8,0.,4.8,0.,4.8
1979-07-03 06:15:19.940 ,5,0,1.,4.8,128.,4.8,0.,4.8,0.,4.8
1979-07-03 06:15:24.740 ,5,0,2.,4.8,140.,4.8,0.,4.8,0.,4.8
1979-07-03 06:15:29.540 ,5,0,0.,4.8,148.,4.8,0.,4.8,0.,4.8
1979-07-03 06:15:34.340 ,5,0,1.,4.8,128.,4.8,0.,4.8,0.,4.8
1979-07-03 06:15:39.140 ,5,0,1.,4.8,148.,4.8,0.,4.8,0.,4.8
1979-07-03 06:15:43.940 ,5,0,0.,4.8,148.,4.8,0.,4.8,0.,4.8
1979-07-03 06:15:48.740 ,5,0,2.,4.8,118.,4.8,0.,4.8,0.,4.8
1979-07-03 06:15:53.540 ,5,0,0.,4.8,144.,4.8,0.,4.8,0.,4.8
1979-07-03 06:15:58.340 ,5,0,1.,4.8,144.,4.8,0.,4.8,0.,4.8
1979-07-03 06:16:03.140 ,6,0,0.,4.8,152.,4.8,0.,4.8,0.,4.8
1979-07-03 06:16:07.940 ,6,0,0.,4.8,156.,4.8,0.,4.8,0.,4.8
1979-07-03 06:16:12.740 ,6,0,2.,4.8,140.,4.8,0.,4.8,0.,4.8
1979-07-03 06:16:17.540 ,6,0,2.,4.8,120.,4.8,0.,4.8,0.,4.8
1979-07-03 06:16:22.340 ,6,0,0.,4.8,120.,4.8,0.,4.8,0.,4.8
1979-07-03 06:16:27.140 ,6,0,0.,4.8,144.,4.8,0.,4.8,0.,4.8
1979-07-03 06:16:31.940 ,6,0,0.,4.8,148.,4.8,0.,4.8,1.,4.8
1979-07-03 06:16:36.740 ,6,0,0.,4.8,144.,4.8,0.,4.8,0.,4.8
1979-07-03 06:16:41.540 ,6,0,1.,4.8,144.,4.8,0.,4.8,0.,4.8
1979-07-03 06:16:46.340 ,6,0,0.,4.8,136.,4.8,0.,4.8,0.,4.8
1979-07-03 06:16:51.140 ,7,0,0.,4.8,152.,4.8,0.,4.8,0.,4.8
1979-07-03 06:16:55.940 ,7,0,0.,4.8,144.,4.8,0.,4.8,0.,4.8
1979-07-03 06:17:00.740 ,7,0,1.,4.8,144.,4.8,0.,4.8,0.,4.8
1979-07-03 06:17:05.540 ,7,0,1.,4.8,144.,4.8,0.,4.8,0.,4.8
1979-07-03 06:17:10.340 ,7,0,2.,4.8,148.,4.8,0.,4.8,0.,4.8
1979-07-03 06:17:15.140 ,7,0,1.,4.8,128.,4.8,0.,4.8,0.,4.8
1979-07-03 06:17:19.940 ,7,0,1.,4.8,144.,4.8,0.,4.8,0.,4.8
1979-07-03 06:17:24.740 ,7,0,1.,4.8,132.,4.8,0.,4.8,0.,4.8
1979-07-03 06:17:29.540 ,7,0,1.,4.8,156.,4.8,0.,4.8,0.,4.8
1979-07-03 06:17:34.340 ,7,0,0.,4.8,156.,4.8,0.,4.8,0.,4.8
1979-07-03 06:17:39.140 ,7,0,0.,4.8,126.,4.8,0.,4.8,0.,4.8
1979-07-03 06:17:43.940 ,7,0,0.,4.8,136.,4.8,0.,4.8,0.,4.8
1979-07-03 06:17:48.740 ,7,0,0.,4.8,118.,4.8,0.,4.8,0.,4.8
1979-07-03 06:17:53.540 ,7,0,0.,4.8,136.,4.8,0.,4.8,0.,4.8
1979-07-03 06:17:58.340 ,7,0,0.,4.8,140.,4.8,0.,4.8,0.,4.8
1979-07-03 06:18:03.140 ,7,0,1.,4.8,124.,4.8,0.,4.8,0.,4.8
1979-07-03 06:18:07.940 ,7,0,0.,4.8,156.,4.8,0.,4.8,0.,4.8
1979-07-03 06:18:12.740 ,7,0,3.,4.8,136.,4.8,0.,4.8,0.,4.8
1979-07-03 06:18:17.540 ,7,0,2.,4.8,152.,4.8,0.,4.8,0.,4.8
1979-07-03 06:18:22.340 ,7,0,1.,4.8,136.,4.8,0.,4.8,0.,4.8
1979-07-03 06:18:27.140 ,6,0,0.,4.8,132.,4.8,0.,4.8,0.,4.8
1979-07-03 06:18:31.940 ,6,0,2.,4.8,140.,4.8,0.,4.8,0.,4.8
1979-07-03 06:18:36.740 ,6,0,3.,4.8,136.,4.8,0.,4.8,0.,4.8
1979-07-03 06:18:41.540 ,6,0,1.,4.8,152.,4.8,0.,4.8,0.,4.8
1979-07-03 06:18:46.340 ,6,0,0.,4.8,122.,4.8,0.,4.8,0.,4.8
1979-07-03 06:18:51.140 ,6,0,2.,4.8,132.,4.8,0.,4.8,0.,4.8
1979-07-03 06:18:55.940 ,6,0,2.,4.8,128.,4.8,0.,4.8,0.,4.8
1979-07-03 06:19:00.740 ,6,0,0.,4.8,128.,4.8,0.,4.8,0.,4.8
1979-07-03 06:19:05.540 ,6,0,0.,4.8,140.,4.8,0.,4.8,0.,4.8
1979-07-03 06:19:10.340 ,6,0,0.,4.8,136.,4.8,0.,4.8,0.,4.8
1979-07-03 06:19:15.140 ,5,0,0.,4.8,128.,4.8,0.,4.8,0.,4.8
1979-07-03 06:19:19.940 ,5,0,1.,4.8,140.,4.8,0.,4.8,0.,4.8
1979-07-03 06:19:24.740 ,5,0,1.,4.8,144.,4.8,0.,4.8,0.,4.8
1979-07-03 06:19:29.540 ,5,0,2.,4.8,136.,4.8,0.,4.8,0.,4.8
1979-07-03 06:19:34.340 ,5,0,0.,4.8,140.,4.8,0.,4.8,0.,4.8
1979-07-03 06:19:39.140 ,5,0,1.,4.8,132.,4.8,0.,4.8,0.,4.8
1979-07-03 06:19:43.940 ,5,0,1.,4.8,144.,4.8,0.,4.8,0.,4.8
1979-07-03 06:19:48.740 ,5,0,1.,4.8,152.,4.8,0.,4.8,0.,4.8
1979-07-03 06:19:53.540 ,5,0,0.,4.8,156.,4.8,0.,4.8,0.,4.8
1979-07-03 06:19:58.340 ,5,0,1.,4.8,132.,4.8,0.,4.8,0.,4.8
1979-07-03 06:20:03.140 ,4,0,0.,4.8,136.,4.8,0.,4.8,0.,4.8
1979-07-03 06:20:07.940 ,4,0,2.,4.8,128.,4.8,0.,4.8,0.,4.8
1979-07-03 06:20:12.740 ,4,0,0.,4.8,136.,4.8,0.,4.8,0.,4.8
1979-07-03 06:20:17.540 ,4,0,1.,4.8,126.,4.8,0.,4.8,0.,4.8
1979-07-03 06:20:22.340 ,4,0,0.,4.8,128.,4.8,0.,4.8,0.,4.8
1979-07-03 06:20:27.140 ,4,0,1.,4.8,148.,4.8,0.,4.8,0.,4.8
1979-07-03 06:20:31.940 ,4,0,2.,4.8,148.,4.8,0.,4.8,0.,4.8
1979-07-03 06:20:36.740 ,4,0,0.,4.8,122.,4.8,0.,4.8,0.,4.8
1979-07-03 06:20:41.540 ,4,0,1.,4.8,156.,4.8,0.,4.8,0.,4.8
1979-07-03 06:20:46.340 ,4,0,0.,4.8,156.,4.8,0.,4.8,0.,4.8
1979-07-03 06:20:51.140 ,3,0,0.,4.8,132.,4.8,0.,4.8,0.,4.8
1979-07-03 06:20:55.940 ,3,0,1.,4.8,140.,4.8,0.,4.8,0.,4.8
1979-07-03 06:21:00.740 ,3,0,2.,4.8,152.,4.8,0.,4.8,0.,4.8
1979-07-03 06:21:05.540 ,3,0,0.,4.8,136.,4.8,0.,4.8,0.,4.8
1979-07-03 06:21:10.340 ,3,0,2.,4.8,144.,4.8,0.,4.8,0.,4.8
1979-07-03 06:21:15.140 ,3,0,1.,4.8,136.,4.8,0.,4.8,0.,4.8
1979-07-03 06:21:19.940 ,3,0,1.,4.8,152.,4.8,0.,4.8,0.,4.8
1979-07-03 06:21:24.740 ,3,0,0.,4.8,140.,4.8,0.,4.8,0.,4.8
1979-07-03 06:21:29.540 ,3,0,2.,4.8,164.,4.8,0.,4.8,0.,4.8
1979-07-03 06:21:34.340 ,3,0,1.,4.8,136.,4.8,0.,4.8,0.,4.8
1979-07-03 06:21:39.140 ,2,0,1.,4.8,132.,4.8,0.,4.8,0.,4.8
1979-07-03 06:21:43.940 ,2,0,1.,4.8,144.,4.8,0.,4.8,0.,4.8
1979-07-03 06:21:48.740 ,2,0,1.,4.8,128.,4.8,0.,4.8,0.,4.8
1979-07-03 06:21:53.540 ,2,0,2.,4.8,128.,4.8,0.,4.8,0.,4.8
1979-07-03 06:21:58.340 ,2,0,0.,4.8,122.,4.8,0.,4.8,0.,4.8
1979-07-03 06:22:03.140 ,2,0,1.,4.8,122.,4.8,0.,4.8,0.,4.8
1979-07-03 06:22:07.940 ,2,0,1.,4.8,140.,4.8,0.,4.8,0.,4.8
1979-07-03 06:22:12.740 ,2,0,2.,4.8,120.,4.8,0.,4.8,0.,4.8
1979-07-03 06:22:17.540 ,2,0,3.,4.8,136.,4.8,0.,4.8,0.,4.8
1979-07-03 06:22:22.340 ,2,0,0.,4.8,144.,4.8,0.,4.8,0.,4.8
1979-07-03 06:22:27.140 ,1,0,2.,4.8,136.,4.8,0.,4.8,0.,4.8
1979-07-03 06:22:31.940 ,1,0,2.,4.8,156.,4.8,0.,4.8,0.,4.8
1979-07-03 06:22:36.740 ,1,0,1.,4.8,140.,4.8,0.,4.8,0.,4.8
1979-07-03 06:22:41.540 ,1,0,0.,4.8,128.,4.8,0.,4.8,0.,4.8
1979-07-03 06:22:46.340 ,1,0,1.,4.8,148.,4.8,0.,4.8,0.,4.8
1979-07-03 06:22:51.140 ,1,0,2.,4.8,152.,4.8,0.,4.8,0.,4.8
1979-07-03 06:22:55.940 ,1,0,1.,4.8,136.,4.8,0.,4.8,0.,4.8
1979-07-03 06:23:00.740 ,1,0,3.,4.8,152.,4.8,0.,4.8,0.,4.8
1979-07-03 06:23:05.540 ,1,0,1.,4.8,152.,4.8,0.,4.8,0.,4.8
1979-07-03 06:23:10.340 ,1,0,1.,4.8,144.,4.8,0.,4.8,0.,4.8
1979-07-03 06:23:15.140 ,0,0,0.,4.8,148.,4.8,0.,4.8,0.,4.8
1979-07-03 06:23:19.940 ,0,0,2.,4.8,144.,4.8,0.,4.8,0.,4.8
1979-07-03 06:23:24.740 ,0,0,0.,4.8,132.,4.8,0.,4.8,0.,4.8
1979-07-03 06:23:29.540 ,0,0,1.,4.8,140.,4.8,0.,4.8,0.,4.8
1979-07-03 06:23:34.340 ,0,0,1.,4.8,128.,4.8,0.,4.8,0.,4.8
1979-07-03 06:23:39.140 ,0,0,0.,4.8,144.,4.8,0.,4.8,0.,4.8
1979-07-03 06:23:43.940 ,0,0,2.,4.8,148.,4.8,0.,4.8,0.,4.8
1979-07-03 06:23:48.740 ,0,0,2.,4.8,152.,4.8,0.,4.8,0.,4.8
1979-07-03 06:23:53.540 ,0,0,3.,4.8,144.,4.8,0.,4.8,0.,4.8
1979-07-03 06:23:58.340 ,0,0,0.,4.8,144.,4.8,0.,4.8,0.,4.8
1979-07-03 06:24:03.140 ,0,0,1.,4.8,144.,4.8,0.,4.8,0.,4.8
1979-07-03 06:24:07.940 ,0,0,2.,4.8,120.,4.8,0.,4.8,0.,4.8
1979-07-03 06:24:12.740 ,0,0,0.,4.8,144.,4.8,0.,4.8,0.,4.8
1979-07-03 06:24:17.540 ,0,0,1.,4.8,122.,4.8,0.,4.8,0.,4.8
1979-07-03 06:24:22.340 ,0,0,1.,4.8,136.,4.8,0.,4.8,0.,4.8
1979-07-03 06:24:27.140 ,0,0,0.,4.8,132.,4.8,0.,4.8,0.,4.8
1979-07-03 06:24:31.940 ,0,0,0.,4.8,132.,4.8,0.,4.8,0.,4.8
1979-07-03 06:24:36.740 ,0,0,0.,4.8,132.,4.8,0.,4.8,0.,4.8
1979-07-03 06:24:41.540 ,0,0,0.,4.8,148.,4.8,0.,4.8,0.,4.8
1979-07-03 06:24:46.340 ,0,0,2.,4.8,152.,4.8,0.,4.8,0.,4.8
1979-07-03 06:24:51.140 ,1,0,2.,4.8,152.,4.8,0.,4.8,0.,4.8
1979-07-03 06:24:55.940 ,1,0,1.,4.8,128.,4.8,0.,4.8,0.,4.8
1979-07-03 06:25:00.740 ,1,0,1.,4.8,128.,4.8,0.,4.8,0.,4.8
1979-07-03 06:25:05.540 ,1,0,2.,4.8,160.,4.8,0.,4.8,0.,4.8
1979-07-03 06:25:10.340 ,1,0,0.,4.8,136.,4.8,0.,4.8,0.,4.8
1979-07-03 06:25:15.140 ,1,0,0.,4.8,128.,4.8,0.,4.8,0.,4.8
1979-07-03 06:25:19.940 ,1,0,1.,4.8,148.,4.8,0.,4.8,0.,4.8
1979-07-03 06:25:24.740 ,1,0,0.,4.8,140.,4.8,0.,4.8,0.,4.8
1979-07-03 06:25:29.540 ,1,0,0.,4.8,136.,4.8,0.,4.8,0.,4.8
1979-07-03 06:25:34.340 ,1,0,2.,4.8,144.,4.8,0.,4.8,0.,4.8
1979-07-03 06:25:39.140 ,2,0,0.,4.8,132.,4.8,0.,4.8,0.,4.8
1979-07-03 06:25:43.940 ,2,0,0.,4.8,128.,4.8,0.,4.8,0.,4.8
1979-07-03 06:25:48.740 ,2,0,0.,4.8,136.,4.8,0.,4.8,0.,4.8
1979-07-03 06:25:53.540 ,2,0,1.,4.8,148.,4.8,0.,4.8,0.,4.8
1979-07-03 06:25:58.340 ,2,0,0.,4.8,136.,4.8,0.,4.8,0.,4.8
1979-07-03 06:26:03.140 ,2,0,1.,4.8,136.,4.8,0.,4.8,0.,4.8
1979-07-03 06:26:07.940 ,2,0,0.,4.8,152.,4.8,0.,4.8,0.,4.8
1979-07-03 06:26:12.740 ,2,0,2.,4.8,118.,4.8,0.,4.8,0.,4.8
1979-07-03 06:26:17.540 ,2,0,1.,4.8,126.,4.8,0.,4.8,0.,4.8
1979-07-03 06:26:22.340 ,2,0,1.,4.8,132.,4.8,0.,4.8,0.,4.8
1979-07-03 06:26:27.140 ,3,0,0.,4.8,136.,4.8,0.,4.8,0.,4.8
1979-07-03 06:26:31.940 ,3,0,2.,4.8,140.,4.8,0.,4.8,0.,4.8
1979-07-03 06:26:36.740 ,3,0,0.,4.8,128.,4.8,0.,4.8,0.,4.8
1979-07-03 06:26:41.540 ,3,0,0.,4.8,136.,4.8,0.,4.8,0.,4.8
1979-07-03 06:26:46.340 ,3,0,1.,4.8,122.,4.8,0.,4.8,0.,4.8
1979-07-03 06:26:51.140 ,3,0,1.,4.8,148.,4.8,0.,4.8,0.,4.8
1979-07-03 06:26:55.940 ,3,0,0.,4.8,132.,4.8,0.,4.8,0.,4.8
1979-07-03 06:27:00.740 ,3,0,2.,4.8,140.,4.8,0.,4.8,0.,4.8
1979-07-03 06:27:05.540 ,3,0,0.,4.8,144.,4.8,0.,4.8,0.,4.8
1979-07-03 06:27:10.340 ,3,0,2.,4.8,136.,4.8,0.,4.8,0.,4.8
1979-07-03 06:27:15.140 ,4,0,1.,4.8,144.,4.8,1.,4.8,0.,4.8
1979-07-03 06:27:19.940 ,4,0,0.,4.8,156.,4.8,0.,4.8,0.,4.8
1979-07-03 06:27:24.740 ,4,0,2.,4.8,152.,4.8,0.,4.8,0.,4.8
1979-07-03 06:27:29.540 ,4,0,0.,4.8,152.,4.8,0.,4.8,0.,4.8
1979-07-03 06:27:34.340 ,4,0,2.,4.8,128.,4.8,0.,4.8,0.,4.8
1979-07-03 06:27:39.140 ,4,0,3.,4.8,148.,4.8,0.,4.8,0.,4.8
1979-07-03 06:27:43.940 ,4,0,3.,4.8,144.,4.8,0.,4.8,0.,4.8
1979-07-03 06:27:48.740 ,4,0,1.,4.8,136.,4.8,0.,4.8,0.,4.8
1979-07-03 06:27:53.540 ,4,0,3.,4.8,140.,4.8,0.,4.8,1.,4.8
1979-07-03 06:27:58.340 ,4,0,2.,4.8,140.,4.8,0.,4.8,0.,4.8
1979-07-03 06:28:03.140 ,5,0,1.,4.8,148.,4.8,0.,4.8,0.,4.8
1979-07-03 06:28:07.940 ,5,0,3.,4.8,140.,4.8,0.,4.8,0.,4.8
1979-07-03 06:28:12.740 ,5,0,0.,4.8,136.,4.8,0.,4.8,0.,4.8
1979-07-03 06:28:17.540 ,5,0,2.,4.8,132.,4.8,0.,4.8,0.,4.8
1979-07-03 06:28:22.340 ,5,0,0.,4.8,160.,4.8,0.,4.8,0.,4.8
1979-07-03 06:28:27.140 ,5,0,2.,4.8,128.,4.8,0.,4.8,0.,4.8
1979-07-03 06:28:31.940 ,5,0,0.,4.8,152.,4.8,0.,4.8,0.,4.8
1979-07-03 06:28:36.740 ,5,0,0.,4.8,126.,4.8,0.,4.8,0.,4.8
1979-07-03 06:28:41.540 ,5,0,0.,4.8,132.,4.8,0.,4.8,0.,4.8
1979-07-03 06:28:46.340 ,5,0,2.,4.8,140.,4.8,0.,4.8,0.,4.8
1979-07-03 06:28:51.140 ,6,0,3.,4.8,156.,4.8,0.,4.8,0.,4.8
1979-07-03 06:28:55.940 ,6,0,0.,4.8,136.,4.8,0.,4.8,0.,4.8
1979-07-03 06:29:00.740 ,6,0,0.,4.8,136.,4.8,0.,4.8,0.,4.8
1979-07-03 06:29:05.540 ,6,0,1.,4.8,148.,4.8,0.,4.8,0.,4.8
1979-07-03 06:29:10.340 ,6,0,1.,4.8,136.,4.8,0.,4.8,0.,4.8
1979-07-03 06:29:15.140 ,6,0,2.,4.8,128.,4.8,0.,4.8,0.,4.8
1979-07-03 06:29:19.940 ,6,0,0.,4.8,132.,4.8,0.,4.8,1.,4.8
1979-07-03 06:29:24.740 ,6,0,1.,4.8,120.,4.8,0.,4.8,0.,4.8
1979-07-03 06:29:29.540 ,6,0,2.,4.8,136.,4.8,0.,4.8,0.,4.8
1979-07-03 06:29:34.340 ,6,0,1.,4.8,126.,4.8,0.,4.8,0.,4.8
1979-07-03 06:29:39.140 ,7,0,0.,4.8,144.,4.8,0.,4.8,0.,4.8
1979-07-03 06:29:43.940 ,7,0,0.,4.8,152.,4.8,0.,4.8,0.,4.8
1979-07-03 06:29:48.740 ,7,0,1.,4.8,140.,4.8,0.,4.8,0.,4.8
1979-07-03 06:29:53.540 ,7,0,1.,4.8,132.,4.8,0.,4.8,0.,4.8
1979-07-03 06:29:58.340 ,7,0,0.,4.8,148.,4.8,0.,4.8,0.,4.8
1979-07-03 06:30:03.140 ,7,0,1.,4.8,140.,4.8,0.,4.8,0.,4.8
1979-07-03 06:30:07.940 ,7,0,1.,4.8,114.,4.8,0.,4.8,0.,4.8
1979-07-03 06:30:12.740 ,7,0,4.,4.8,132.,4.8,0.,4.8,0.,4.8
1979-07-03 06:30:17.540 ,7,0,0.,4.8,148.,4.8,0.,4.8,0.,4.8
1979-07-03 06:30:22.340 ,7,0,2.,4.8,124.,4.8,0.,4.8,0.,4.8
1979-07-03 06:30:27.140 ,7,0,2.,4.8,120.,4.8,0.,4.8,0.,4.8
1979-07-03 06:30:31.930 ,7,0,2.,4.8,148.,4.8,0.,4.8,0.,4.8
1979-07-03 06:30:36.730 ,7,0,1.,4.8,128.,4.8,0.,4.8,0.,4.8
1979-07-03 06:30:41.530 ,7,0,3.,4.8,128.,4.8,0.,4.8,0.,4.8
1979-07-03 06:30:46.330 ,7,0,4.,4.8,136.,4.8,0.,4.8,0.,4.8
1979-07-03 06:30:51.140 ,7,0,0.,4.8,144.,4.8,0.,4.8,0.,4.8
1979-07-03 06:30:55.930 ,7,0,1.,4.8,128.,4.8,0.,4.8,0.,4.8
1979-07-03 06:31:00.730 ,7,0,1.,4.8,136.,4.8,0.,4.8,0.,4.8
1979-07-03 06:31:05.530 ,7,0,0.,4.8,140.,4.8,0.,4.8,0.,4.8
1979-07-03 06:31:10.330 ,7,0,0.,4.8,148.,4.8,0.,4.8,0.,4.8
1979-07-03 06:31:15.140 ,6,0,2.,4.8,128.,4.8,0.,4.8,0.,4.8
1979-07-03 06:31:19.930 ,6,0,0.,4.8,136.,4.8,0.,4.8,0.,4.8
1979-07-03 06:31:24.730 ,6,0,1.,4.8,140.,4.8,0.,4.8,0.,4.8
1979-07-03 06:31:29.530 ,6,0,1.,4.8,140.,4.8,0.,4.8,0.,4.8
1979-07-03 06:31:34.330 ,6,0,0.,4.8,148.,4.8,0.,4.8,0.,4.8
1979-07-03 06:31:39.140 ,6,0,3.,4.8,136.,4.8,0.,4.8,0.,4.8
1979-07-03 06:31:43.930 ,6,0,1.,4.8,136.,4.8,0.,4.8,0.,4.8
1979-07-03 06:31:48.730 ,6,0,0.,4.8,156.,4.8,0.,4.8,0.,4.8
1979-07-03 06:31:53.530 ,6,0,1.,4.8,136.,4.8,0.,4.8,0.,4.8
1979-07-03 06:31:58.330 ,6,0,2.,4.8,136.,4.8,0.,4.8,0.,4.8
1979-07-03 06:32:03.140 ,5,0,1.,4.8,136.,4.8,0.,4.8,0.,4.8
1979-07-03 06:32:07.930 ,5,0,2.,4.8,140.,4.8,0.,4.8,0.,4.8
1979-07-03 06:32:12.730 ,5,0,0.,4.8,144.,4.8,0.,4.8,0.,4.8